User: anonymous   Login
Location: D�derode
(51.8092°N, 10.1065°E)
Time: 22:03:38
(UTC+00:00)
Language:

YAOGAN 6 - Orbit

View from above orbital plane
View from above orbital plane
View from above satellite
View from above satellite

Ground track
Ground track

The orbit data is extracted from the following two-line orbital elements,

1 34839U 09021A   21059.47407674  .00000777  00000-0  31331-4 0  9991
2 34839  97.0449  59.4178 0027372 184.7879 175.3103 15.27307553658851
Epoch (UTC): 28 February 2021 11:22:40
Eccentricity: 0.0027372
inclination: 97.0449°
perigee height: 465 km
apogee height: 502 km
right ascension of ascending node: 59.4178°
argument of perigee: 184.7879°
revolutions per day: 15.27307553
mean anomaly at epoch: 175.3103°
orbit number at epoch: 65885

The dashed part of the orbit path shows where the satellite is in the earth's shadow,  

DLR